User: anonymous   Login
Location: Unspecified
(49.2170°N, 0.0000°E)
Time: 08:42:38
(UTC+00:00)
Language:

Transit 4A - Orbit

View from above orbital plane
View from above orbital plane
View from above satellite
View from above satellite

Ground track
Ground track

The orbit data is extracted from the following two-line orbital elements,

1   116U 61015A   19176.02827738 -.00000069 +00000-0 +60943-5 0  9995
2   116 066.8103 004.4107 0082654 260.9464 098.2255 13.91753937941942
Epoch (UTC): 25 June 2019 00:40:43
Eccentricity: 0.0082654
inclination: 66.8103°
perigee height: 862 km
apogee height: 983 km
right ascension of ascending node: 4.4107°
argument of perigee: 260.9464°
revolutions per day: 13.91753937
mean anomaly at epoch: 98.2255°
orbit number at epoch: 94194

The dashed part of the orbit path shows where the satellite is in the earth's shadow,  

DLR